Hourly Data Report for October 26, 2014

All times are specified in Local Standard Time (LST). Add 1 hour to adjust for Daylight Saving Time where and when it is observed.

SAINT JOHN A
NEW BRUNSWICK

45°18'58.000" N
65°53'24.000" W
108.80 m
8104901
71609
YSJ

Download Data

Hourly Data (October 2014)
Hourly Data Report for October 26, 2014
Temp Definition
°C
Dew Point Temp Definition
°C
Rel Hum Definition
%
Wind Dir Definition
10's deg

Wind Spd Definition
km/h
Visibility Definition
km
Stn Press Definition
kPa
Hmdx Definition


Wind Chill Definition


Weather Definition


TIME
00:00 Legend Double Dagger 3.6 3.6 100 15 3 4.8 98.66     Fog
01:00 Legend Double Dagger 2.8 2.8 100 36 2 0.8 98.67     Fog
02:00 Legend Double Dagger 2.6 2.6 100 8 6 1.6 98.60     Fog
03:00 Legend Double Dagger 3.1 3.1 100 5 4 24.1 98.55     LegendNANA
04:00 Legend Double Dagger 3.6 3.6 100 4 3 24.1 98.49     LegendNANA
05:00 Legend Double Dagger 6.6 6.6 100 12 16 24.1 98.42     Cloudy
06:00 Legend Double Dagger 7.1 7.1 100 11 13 24.1 98.36     Rain Showers
07:00 Legend Double Dagger 7.7 7.0 95 13 12 24.1 98.34     LegendNANA
08:00 Legend Double Dagger 8.4 7.5 94 13 21 24.1 98.29     Rain Showers
09:00 Legend Double Dagger 9.6 8.7 94 13 19 24.1 98.25     LegendNANA
10:00 Legend Double Dagger 9.8 9.5 98 13 16 16.1 98.20     Rain Showers
11:00 Legend Double Dagger 10.4 10.1 98 12 14 9.7 98.13     Rain Showers,Fog
12:00 Legend Double Dagger 10.5 10.4 99 16 20 12.9 98.06     Thunderstorms,Rain Showers
13:00 Legend Double Dagger 10.3 9.9 97 17 18 9.7 97.97     Rain Showers,Fog
14:00 Legend Double Dagger 10.1 9.0 93 29 7 24.1 97.98     Mostly Cloudy
15:00 Legend Double Dagger 9.6 8.7 94 21 5 6.4 98.04     Rain Showers,Fog
16:00 Legend Double Dagger 10.1 9.5 96 30 10 16.1 98.07     LegendNANA
17:00 Legend Double Dagger 7.9 7.6 98 34 18 12.9 98.14     Cloudy
18:00 Legend Double Dagger 7.5 7.4 99 33 18 8.1 98.16     Fog
19:00 Legend Double Dagger 7.2 6.5 95 34 24 12.9 98.22     LegendNANA
20:00 Legend Double Dagger 6.4 5.8 96 33 22 16.1 98.21     Cloudy
21:00 Legend Double Dagger 6.6 6.0 96 33 18 16.1 98.27     LegendNANA
22:00 Legend Double Dagger 6.9 6.5 97 31 13 12.9 98.30     Drizzle
23:00 Legend Double Dagger 6.9 5.4 90 31 16 19.3 98.32     Drizzle

Notes on Data Quality.

Legend

  • E = Estimated
  • M = Missing
  • NA = Not Available
  • ‡ = Partner data that is not subject to review by the National Climate Archives
Date modified: